owner,sensor,date,latitude,longitude,vertical_datum,sea_water_practical_salinity,qcFlag 
DISL,ioos:station:DISL:CATA:1,2016-06-01T00:00:00Z,30.3085,-88.1395,2.294,18.76,1111122 
DISL,ioos:station:DISL:CATA:1,2016-06-01T00:30:00Z,30.3085,-88.1395,2.291,19.56,1111122 
DISL,ioos:station:DISL:CATA:1,2016-06-01T01:00:00Z,30.3085,-88.1395,2.299,19.47,1111122 
DISL,ioos:station:DISL:CATA:1,2016-06-01T01:30:00Z,30.3085,-88.1395,2.297,19.37,1111122 
DISL,ioos:station:DISL:CATA:1,2016-06-01T02:00:00Z,30.3085,-88.1395,2.316,19.32,1111122 
DISL,ioos:station:DISL:CATA:1,2016-06-01T02:30:00Z,30.3085,-88.1395,2.313,19.8,1111122 
DISL,ioos:station:DISL:CATA:1,2016-06-01T03:00:00Z,30.3085,-88.1395,2.314,19.31,1111122 
DISL,ioos:station:DISL:CATA:1,2016-06-01T03:30:00Z,30.3085,-88.1395,2.326,19.65,1111122 
DISL,ioos:station:DISL:CATA:1,2016-06-01T04:00:00Z,30.3085,-88.1395,2.319,19.49,1111122 
DISL,ioos:station:DISL:CATA:1,2016-06-01T04:30:00Z,30.3085,-88.1395,2.323,19.72,1111122 
DISL,ioos:station:DISL:CATA:1,2016-06-01T05:00:00Z,30.3085,-88.1395,2.314,19.67,1111122 
DISL,ioos:station:DISL:CATA:1,2016-06-01T05:30:00Z,30.3085,-88.1395,2.312,19.13,1111122 
DISL,ioos:station:DISL:CATA:1,2016-06-01T06:00:00Z,30.3085,-88.1395,2.299,20.24,1111122 
DISL,ioos:station:DISL:CATA:1,2016-06-01T06:30:00Z,30.3085,-88.1395,2.298,20.19,1111122 
DISL,ioos:station:DISL:CATA:1,2016-06-01T07:00:00Z,30.3085,-88.1395,2.311,20.09,1111122 
DISL,ioos:station:DISL:CATA:1,2016-06-01T07:30:00Z,30.3085,-88.1395,2.326,19.97,1111122 
DISL,ioos:station:DISL:CATA:1,2016-06-01T08:00:00Z,30.3085,-88.1395,2.349,19.95,1111122 
DISL,ioos:station:DISL:CATA:1,2016-06-01T08:30:00Z,30.3085,-88.1395,2.36,20.04,1111122 
DISL,ioos:station:DISL:CATA:1,2016-06-01T09:00:00Z,30.3085,-88.1395,2.371,20.02,1111122 
DISL,ioos:station:DISL:CATA:1,2016-06-01T09:30:00Z,30.3085,-88.1395,2.405,19.76,1111122 
DISL,ioos:station:DISL:CATA:1,2016-06-01T10:00:00Z,30.3085,-88.1395,2.403,19.42,1111122 
DISL,ioos:station:DISL:CATA:1,2016-06-01T10:30:00Z,30.3085,-88.1395,2.424,19.66,1111122 
DISL,ioos:station:DISL:CATA:1,2016-06-01T11:00:00Z,30.3085,-88.1395,2.428,19.73,1111122 
DISL,ioos:station:DISL:CATA:1,2016-06-01T11:30:00Z,30.3085,-88.1395,2.43,19.95,1111122 
DISL,ioos:station:DISL:CATA:1,2016-06-01T12:00:00Z,30.3085,-88.1395,2.447,19.98,1111122 
DISL,ioos:station:DISL:CATA:1,2016-06-01T12:30:00Z,30.3085,-88.1395,2.444,19.64,1111122 
DISL,ioos:station:DISL:CATA:1,2016-06-01T13:00:00Z,30.3085,-88.1395,2.453,19.8,1111122 
DISL,ioos:station:DISL:CATA:1,2016-06-01T13:30:00Z,30.3085,-88.1395,2.464,20.04,1111122 
DISL,ioos:station:DISL:CATA:1,2016-06-01T14:00:00Z,30.3085,-88.1395,2.472,20.27,1111122 
DISL,ioos:station:DISL:CATA:1,2016-06-01T14:30:00Z,30.3085,-88.1395,2.474,20.5,1111122 
DISL,ioos:station:DISL:CATA:1,2016-06-01T15:00:00Z,30.3085,-88.1395,2.464,20.63,1111122 
DISL,ioos:station:DISL:CATA:1,2016-06-01T15:30:00Z,30.3085,-88.1395,2.462,21.1,1111122 
DISL,ioos:station:DISL:CATA:1,2016-06-01T16:00:00Z,30.3085,-88.1395,2.434,21.29,1111122 
DISL,ioos:station:DISL:CATA:1,2016-06-01T16:30:00Z,30.3085,-88.1395,2.412,21.36,1111122 
DISL,ioos:station:DISL:CATA:1,2016-06-01T17:00:00Z,30.3085,-88.1395,2.397,21.64,1111122 
DISL,ioos:station:DISL:CATA:1,2016-06-01T17:30:00Z,30.3085,-88.1395,2.365,21.75,1111122 
DISL,ioos:station:DISL:CATA:1,2016-06-01T18:00:00Z,30.3085,-88.1395,2.321,21.66,1111122 
DISL,ioos:station:DISL:CATA:1,2016-06-01T18:30:00Z,30.3085,-88.1395,2.286,21.46,1111122 
DISL,ioos:station:DISL:CATA:1,2016-06-01T19:00:00Z,30.3085,-88.1395,2.246,18.81,1111122 
DISL,ioos:station:DISL:CATA:1,2016-06-01T19:30:00Z,30.3085,-88.1395,2.222,16.3,1111122 
DISL,ioos:station:DISL:CATA:1,2016-06-01T20:00:00Z,30.3085,-88.1395,2.205,14.41,1111122 
DISL,ioos:station:DISL:CATA:1,2016-06-01T20:30:00Z,30.3085,-88.1395,2.177,14.04,1111122 
DISL,ioos:station:DISL:CATA:1,2016-06-01T21:00:00Z,30.3085,-88.1395,2.177,12.52,1111122 
DISL,ioos:station:DISL:CATA:1,2016-06-01T21:30:00Z,30.3085,-88.1395,2.179,13.09,1111122 
DISL,ioos:station:DISL:CATA:1,2016-06-01T22:00:00Z,30.3085,-88.1395,2.175,13.11,1111122 
DISL,ioos:station:DISL:CATA:1,2016-06-01T22:30:00Z,30.3085,-88.1395,2.175,12.82,1111122 
DISL,ioos:station:DISL:CATA:1,2016-06-01T23:00:00Z,30.3085,-88.1395,2.183,13.16,1111122 
DISL,ioos:station:DISL:CATA:1,2016-06-01T23:30:00Z,30.3085,-88.1395,2.168,13.4,1111122 
DISL,ioos:station:DISL:CATA:1,2016-06-02T00:00:00Z,30.3085,-88.1395,2.168,12.85,1111122 
DISL,ioos:station:DISL:CATA:1,2016-06-02T00:30:00Z,30.3085,-88.1395,2.174,12.52,1111122 
DISL,ioos:station:DISL:CATA:1,2016-06-02T01:00:00Z,30.3085,-88.1395,2.187,13.11,1111122 
DISL,ioos:station:DISL:CATA:1,2016-06-02T01:30:00Z,30.3085,-88.1395,2.194,13.37,1111122 
DISL,ioos:station:DISL:CATA:1,2016-06-02T02:00:00Z,30.3085,-88.1395,2.215,13.48,1111122 
DISL,ioos:station:DISL:CATA:1,2016-06-02T02:30:00Z,30.3085,-88.1395,2.236,13.79,1111122 
DISL,ioos:station:DISL:CATA:1,2016-06-02T03:00:00Z,30.3085,-88.1395,2.259,14.25,1111122 
DISL,ioos:station:DISL:CATA:1,2016-06-02T03:30:00Z,30.3085,-88.1395,2.275,14.72,1111122 
DISL,ioos:station:DISL:CATA:1,2016-06-02T04:00:00Z,30.3085,-88.1395,2.285,15.4,1111122 
DISL,ioos:station:DISL:CATA:1,2016-06-02T04:30:00Z,30.3085,-88.1395,2.305,15.99,1111122 
DISL,ioos:station:DISL:CATA:1,2016-06-02T05:00:00Z,30.3085,-88.1395,2.317,16.07,1111122 
DISL,ioos:station:DISL:CATA:1,2016-06-02T05:30:00Z,30.3085,-88.1395,2.314,16.29,1111122 
DISL,ioos:station:DISL:CATA:1,2016-06-02T06:00:00Z,30.3085,-88.1395,2.303,16.43,1111122 
DISL,ioos:station:DISL:CATA:1,2016-06-02T06:30:00Z,30.3085,-88.1395,2.321,17.24,1111122 
DISL,ioos:station:DISL:CATA:1,2016-06-02T07:00:00Z,30.3085,-88.1395,2.329,17.05,1111122 
DISL,ioos:station:DISL:CATA:1,2016-06-02T07:30:00Z,30.3085,-88.1395,2.338,17.57,1111122 
DISL,ioos:station:DISL:CATA:1,2016-06-02T08:00:00Z,30.3085,-88.1395,2.355,17.34,1111122 
DISL,ioos:station:DISL:CATA:1,2016-06-02T08:30:00Z,30.3085,-88.1395,2.372,16.93,1111122 
DISL,ioos:station:DISL:CATA:1,2016-06-02T09:00:00Z,30.3085,-88.1395,2.39,17.67,1111122 
DISL,ioos:station:DISL:CATA:1,2016-06-02T09:30:00Z,30.3085,-88.1395,2.406,17.87,1111122 
DISL,ioos:station:DISL:CATA:1,2016-06-02T10:00:00Z,30.3085,-88.1395,2.435,17.38,1111122 
DISL,ioos:station:DISL:CATA:1,2016-06-02T10:30:00Z,30.3085,-88.1395,2.456,18.14,1111122 
DISL,ioos:station:DISL:CATA:1,2016-06-02T11:00:00Z,30.3085,-88.1395,2.478,17.7,1111122 
DISL,ioos:station:DISL:CATA:1,2016-06-02T11:30:00Z,30.3085,-88.1395,2.489,18.75,1111122 
DISL,ioos:station:DISL:CATA:1,2016-06-02T12:00:00Z,30.3085,-88.1395,2.496,18.49,1111122 
DISL,ioos:station:DISL:CATA:1,2016-06-02T12:30:00Z,30.3085,-88.1395,2.509,18.66,1111122 
DISL,ioos:station:DISL:CATA:1,2016-06-02T13:00:00Z,30.3085,-88.1395,2.516,18.89,1111122 
DISL,ioos:station:DISL:CATA:1,2016-06-02T13:30:00Z,30.3085,-88.1395,2.515,19.28,1111122 
DISL,ioos:station:DISL:CATA:1,2016-06-02T14:00:00Z,30.3085,-88.1395,2.513,20.17,1111122 
DISL,ioos:station:DISL:CATA:1,2016-06-02T14:30:00Z,30.3085,-88.1395,2.514,19.7,1111122 
DISL,ioos:station:DISL:CATA:1,2016-06-02T15:00:00Z,30.3085,-88.1395,2.509,20.4,1111122 
DISL,ioos:station:DISL:CATA:1,2016-06-02T15:30:00Z,30.3085,-88.1395,2.507,20.3,1111122 
DISL,ioos:station:DISL:CATA:1,2016-06-02T16:00:00Z,30.3085,-88.1395,2.493,20.48,1111122 
DISL,ioos:station:DISL:CATA:1,2016-06-02T16:30:00Z,30.3085,-88.1395,2.463,20.91,1111122 
DISL,ioos:station:DISL:CATA:1,2016-06-02T17:00:00Z,30.3085,-88.1395,2.443,21.08,1111122 
DISL,ioos:station:DISL:CATA:1,2016-06-02T17:30:00Z,30.3085,-88.1395,2.404,21.16,1111122 
DISL,ioos:station:DISL:CATA:1,2016-06-02T18:00:00Z,30.3085,-88.1395,2.364,20.43,1111122 
DISL,ioos:station:DISL:CATA:1,2016-06-02T18:30:00Z,30.3085,-88.1395,2.326,18.9,1111122 
DISL,ioos:station:DISL:CATA:1,2016-06-02T19:00:00Z,30.3085,-88.1395,2.284,15.7,1111122 
DISL,ioos:station:DISL:CATA:1,2016-06-02T19:30:00Z,30.3085,-88.1395,2.24,15.72,1111122 
DISL,ioos:station:DISL:CATA:1,2016-06-02T20:00:00Z,30.3085,-88.1395,2.192,14.74,1111122 
DISL,ioos:station:DISL:CATA:1,2016-06-02T20:30:00Z,30.3085,-88.1395,2.163,14.23,1111122 
DISL,ioos:station:DISL:CATA:1,2016-06-02T21:00:00Z,30.3085,-88.1395,2.145,14.05,1111122 
DISL,ioos:station:DISL:CATA:1,2016-06-02T21:30:00Z,30.3085,-88.1395,2.131,13.36,1111122 
DISL,ioos:station:DISL:CATA:1,2016-06-02T22:00:00Z,30.3085,-88.1395,2.124,13.41,1111122 
DISL,ioos:station:DISL:CATA:1,2016-06-02T22:30:00Z,30.3085,-88.1395,2.121,13.42,1111122 
DISL,ioos:station:DISL:CATA:1,2016-06-02T23:00:00Z,30.3085,-88.1395,2.145,12.71,1111122 
DISL,ioos:station:DISL:CATA:1,2016-06-02T23:30:00Z,30.3085,-88.1395,2.166,12.79,1111122 
DISL,ioos:station:DISL:CATA:1,2016-06-03T00:00:00Z,30.3085,-88.1395,2.175,13.13,1111122 
DISL,ioos:station:DISL:CATA:1,2016-06-03T00:30:00Z,30.3085,-88.1395,2.184,12.9,1111122 
DISL,ioos:station:DISL:CATA:1,2016-06-03T01:00:00Z,30.3085,-88.1395,2.171,13.06,1111122 
DISL,ioos:station:DISL:CATA:1,2016-06-03T01:30:00Z,30.3085,-88.1395,2.184,12.99,1111122 
DISL,ioos:station:DISL:CATA:1,2016-06-03T02:00:00Z,30.3085,-88.1395,2.17,13.65,1111122 
DISL,ioos:station:DISL:CATA:1,2016-06-03T02:30:00Z,30.3085,-88.1395,2.186,13.76,1111122 
DISL,ioos:station:DISL:CATA:1,2016-06-03T03:00:00Z,30.3085,-88.1395,2.203,13.76,1111122 
DISL,ioos:station:DISL:CATA:1,2016-06-03T03:30:00Z,30.3085,-88.1395,2.225,13.73,1111122 
DISL,ioos:station:DISL:CATA:1,2016-06-03T04:00:00Z,30.3085,-88.1395,2.259,13.75,1111122 
DISL,ioos:station:DISL:CATA:1,2016-06-03T04:30:00Z,30.3085,-88.1395,2.279,13.85,1111122 
DISL,ioos:station:DISL:CATA:1,2016-06-03T05:00:00Z,30.3085,-88.1395,2.302,13.94,1111122 
DISL,ioos:station:DISL:CATA:1,2016-06-03T05:30:00Z,30.3085,-88.1395,2.322,14.25,1111122 
DISL,ioos:station:DISL:CATA:1,2016-06-03T06:00:00Z,30.3085,-88.1395,2.345,15.11,1111122 
DISL,ioos:station:DISL:CATA:1,2016-06-03T06:30:00Z,30.3085,-88.1395,2.357,16.76,1111122 
DISL,ioos:station:DISL:CATA:1,2016-06-03T07:00:00Z,30.3085,-88.1395,2.369,17.2,1111122 
DISL,ioos:station:DISL:CATA:1,2016-06-03T07:30:00Z,30.3085,-88.1395,2.387,17.47,1111122 
DISL,ioos:station:DISL:CATA:1,2016-06-03T08:00:00Z,30.3085,-88.1395,2.41,17.83,1111122 
DISL,ioos:station:DISL:CATA:1,2016-06-03T08:30:00Z,30.3085,-88.1395,2.433,18.37,1111122 
DISL,ioos:station:DISL:CATA:1,2016-06-03T09:00:00Z,30.3085,-88.1395,2.455,18.55,1111122 
DISL,ioos:station:DISL:CATA:1,2016-06-03T09:30:00Z,30.3085,-88.1395,2.477,18.84,1111122 
DISL,ioos:station:DISL:CATA:1,2016-06-03T10:00:00Z,30.3085,-88.1395,2.508,18.98,1111122 
DISL,ioos:station:DISL:CATA:1,2016-06-03T10:30:00Z,30.3085,-88.1395,2.531,19.32,1111122 
DISL,ioos:station:DISL:CATA:1,2016-06-03T11:00:00Z,30.3085,-88.1395,2.56,19.49,1111122 
DISL,ioos:station:DISL:CATA:1,2016-06-03T11:30:00Z,30.3085,-88.1395,2.584,19.73,1111122 
DISL,ioos:station:DISL:CATA:1,2016-06-03T12:00:00Z,30.3085,-88.1395,2.597,19.65,1111122 
DISL,ioos:station:DISL:CATA:1,2016-06-03T12:30:00Z,30.3085,-88.1395,2.617,19.91,1111122 
DISL,ioos:station:DISL:CATA:1,2016-06-03T13:00:00Z,30.3085,-88.1395,2.613,19.86,1111122 
DISL,ioos:station:DISL:CATA:1,2016-06-03T13:30:00Z,30.3085,-88.1395,2.614,20.31,1111122 
DISL,ioos:station:DISL:CATA:1,2016-06-03T14:00:00Z,30.3085,-88.1395,2.622,19.86,1111122 
DISL,ioos:station:DISL:CATA:1,2016-06-03T14:30:00Z,30.3085,-88.1395,2.622,19.86,1111122 
DISL,ioos:station:DISL:CATA:1,2016-06-03T15:00:00Z,30.3085,-88.1395,2.528,21.88,1111122 
DISL,ioos:station:DISL:CATA:1,2016-06-03T15:30:00Z,30.3085,-88.1395,2.524,21.99,1111122 
DISL,ioos:station:DISL:CATA:1,2016-06-03T16:00:00Z,30.3085,-88.1395,2.506,22.03,1111122 
DISL,ioos:station:DISL:CATA:1,2016-06-03T16:30:00Z,30.3085,-88.1395,2.49,22.05,1111122 
DISL,ioos:station:DISL:CATA:1,2016-06-03T17:00:00Z,30.3085,-88.1395,2.468,22.23,1111122 
DISL,ioos:station:DISL:CATA:1,2016-06-03T17:30:00Z,30.3085,-88.1395,2.44,22.3,1111122 
DISL,ioos:station:DISL:CATA:1,2016-06-03T18:00:00Z,30.3085,-88.1395,2.396,22.27,1111122 
DISL,ioos:station:DISL:CATA:1,2016-06-03T18:30:00Z,30.3085,-88.1395,2.353,20.73,1111122 
DISL,ioos:station:DISL:CATA:1,2016-06-03T19:00:00Z,30.3085,-88.1395,2.312,16.94,1111122 
DISL,ioos:station:DISL:CATA:1,2016-06-03T19:30:00Z,30.3085,-88.1395,2.265,15.95,1111122 
DISL,ioos:station:DISL:CATA:1,2016-06-03T20:00:00Z,30.3085,-88.1395,2.226,16.14,1111122 
DISL,ioos:station:DISL:CATA:1,2016-06-03T20:30:00Z,30.3085,-88.1395,2.181,16.14,1111122 
DISL,ioos:station:DISL:CATA:1,2016-06-03T21:00:00Z,30.3085,-88.1395,2.144,15.87,1111122 
DISL,ioos:station:DISL:CATA:1,2016-06-03T21:30:00Z,30.3085,-88.1395,2.109,15.78,1111122 
DISL,ioos:station:DISL:CATA:1,2016-06-03T22:00:00Z,30.3085,-88.1395,2.077,15.68,1111122 
DISL,ioos:station:DISL:CATA:1,2016-06-03T22:30:00Z,30.3085,-88.1395,2.056,15.61,1111122 
DISL,ioos:station:DISL:CATA:1,2016-06-03T23:00:00Z,30.3085,-88.1395,2.04,15.49,1111122 
DISL,ioos:station:DISL:CATA:1,2016-06-03T23:30:00Z,30.3085,-88.1395,2.024,15.63,1111122 
DISL,ioos:station:DISL:CATA:1,2016-06-04T00:00:00Z,30.3085,-88.1395,2.033,15.62,1111122 
DISL,ioos:station:DISL:CATA:1,2016-06-04T00:30:00Z,30.3085,-88.1395,2.043,15.8,1111122 
DISL,ioos:station:DISL:CATA:1,2016-06-04T01:00:00Z,30.3085,-88.1395,2.044,15.85,1111122 
DISL,ioos:station:DISL:CATA:1,2016-06-04T01:30:00Z,30.3085,-88.1395,2.05,15.96,1111122 
DISL,ioos:station:DISL:CATA:1,2016-06-04T02:00:00Z,30.3085,-88.1395,2.053,15.91,1111122 
DISL,ioos:station:DISL:CATA:1,2016-06-04T02:30:00Z,30.3085,-88.1395,2.072,16.04,1111122 
DISL,ioos:station:DISL:CATA:1,2016-06-04T03:00:00Z,30.3085,-88.1395,2.088,16.18,1111122 
DISL,ioos:station:DISL:CATA:1,2016-06-04T03:30:00Z,30.3085,-88.1395,2.138,16.34,1111122 
DISL,ioos:station:DISL:CATA:1,2016-06-04T04:00:00Z,30.3085,-88.1395,2.164,16.49,1111122 
DISL,ioos:station:DISL:CATA:1,2016-06-04T04:30:00Z,30.3085,-88.1395,2.186,16.51,1111122 
DISL,ioos:station:DISL:CATA:1,2016-06-04T05:00:00Z,30.3085,-88.1395,2.213,16.43,1111122 
DISL,ioos:station:DISL:CATA:1,2016-06-04T05:30:00Z,30.3085,-88.1395,2.274,16.49,1111122 
DISL,ioos:station:DISL:CATA:1,2016-06-04T06:00:00Z,30.3085,-88.1395,2.289,16.47,1111122 
DISL,ioos:station:DISL:CATA:1,2016-06-04T06:30:00Z,30.3085,-88.1395,2.3,16.52,1111122 
DISL,ioos:station:DISL:CATA:1,2016-06-04T07:00:00Z,30.3085,-88.1395,2.259,16.52,1111122 
DISL,ioos:station:DISL:CATA:1,2016-06-04T07:30:00Z,30.3085,-88.1395,2.229,16.43,1111122 
DISL,ioos:station:DISL:CATA:1,2016-06-04T08:00:00Z,30.3085,-88.1395,2.28,16.19,1111122 
DISL,ioos:station:DISL:CATA:1,2016-06-04T08:30:00Z,30.3085,-88.1395,2.336,16.24,1111122 
DISL,ioos:station:DISL:CATA:1,2016-06-04T09:00:00Z,30.3085,-88.1395,2.358,15.87,1111122 
DISL,ioos:station:DISL:CATA:1,2016-06-04T09:30:00Z,30.3085,-88.1395,2.376,15.99,1111122 
DISL,ioos:station:DISL:CATA:1,2016-06-04T10:00:00Z,30.3085,-88.1395,2.418,16.32,1111122 
DISL,ioos:station:DISL:CATA:1,2016-06-04T10:30:00Z,30.3085,-88.1395,2.46,16.45,1111122 
DISL,ioos:station:DISL:CATA:1,2016-06-04T11:00:00Z,30.3085,-88.1395,2.496,14.65,1111122 
DISL,ioos:station:DISL:CATA:1,2016-06-04T11:30:00Z,30.3085,-88.1395,2.514,16.24,1111122 
DISL,ioos:station:DISL:CATA:1,2016-06-04T12:00:00Z,30.3085,-88.1395,2.544,16.13,1111122 
DISL,ioos:station:DISL:CATA:1,2016-06-04T12:30:00Z,30.3085,-88.1395,2.557,13.88,1111122 
DISL,ioos:station:DISL:CATA:1,2016-06-04T13:00:00Z,30.3085,-88.1395,2.575,16.87,1111122 
DISL,ioos:station:DISL:CATA:1,2016-06-04T13:30:00Z,30.3085,-88.1395,2.592,16.95,1111122 
DISL,ioos:station:DISL:CATA:1,2016-06-04T14:00:00Z,30.3085,-88.1395,2.61,17.06,1111122 
DISL,ioos:station:DISL:CATA:1,2016-06-04T14:30:00Z,30.3085,-88.1395,2.611,17.17,1111122 
DISL,ioos:station:DISL:CATA:1,2016-06-04T15:00:00Z,30.3085,-88.1395,2.609,17.26,1111122 
DISL,ioos:station:DISL:CATA:1,2016-06-04T15:30:00Z,30.3085,-88.1395,2.584,17.22,1111122 
DISL,ioos:station:DISL:CATA:1,2016-06-04T16:00:00Z,30.3085,-88.1395,2.594,17.21,1111122 
DISL,ioos:station:DISL:CATA:1,2016-06-04T16:30:00Z,30.3085,-88.1395,2.558,17.72,1111122 
DISL,ioos:station:DISL:CATA:1,2016-06-04T17:00:00Z,30.3085,-88.1395,2.56,18.45,1111122 
DISL,ioos:station:DISL:CATA:1,2016-06-04T17:30:00Z,30.3085,-88.1395,2.553,18.9,1111122 
DISL,ioos:station:DISL:CATA:1,2016-06-04T18:00:00Z,30.3085,-88.1395,2.536,19.16,1111122 
DISL,ioos:station:DISL:CATA:1,2016-06-04T18:30:00Z,30.3085,-88.1395,2.512,19.31,1111122 
DISL,ioos:station:DISL:CATA:1,2016-06-04T19:00:00Z,30.3085,-88.1395,2.462,19.73,1111122 
DISL,ioos:station:DISL:CATA:1,2016-06-04T19:30:00Z,30.3085,-88.1395,2.338,19.54,1111122 
DISL,ioos:station:DISL:CATA:1,2016-06-04T20:00:00Z,30.3085,-88.1395,2.389,15.97,1111122 
DISL,ioos:station:DISL:CATA:1,2016-06-04T20:30:00Z,30.3085,-88.1395,2.319,15.81,1111122 
DISL,ioos:station:DISL:CATA:1,2016-06-04T21:00:00Z,30.3085,-88.1395,2.279,16.11,1111122 
DISL,ioos:station:DISL:CATA:1,2016-06-04T21:30:00Z,30.3085,-88.1395,2.258,16.06,1111122 
DISL,ioos:station:DISL:CATA:1,2016-06-04T22:00:00Z,30.3085,-88.1395,2.229,16.25,1111122 
DISL,ioos:station:DISL:CATA:1,2016-06-04T22:30:00Z,30.3085,-88.1395,2.176,16.15,1111122 
DISL,ioos:station:DISL:CATA:1,2016-06-04T23:00:00Z,30.3085,-88.1395,2.145,16.13,1111122 
DISL,ioos:station:DISL:CATA:1,2016-06-04T23:30:00Z,30.3085,-88.1395,2.127,16.15,1111122 
DISL,ioos:station:DISL:CATA:1,2016-06-05T00:00:00Z,30.3085,-88.1395,2.147,16.21,1111122 
DISL,ioos:station:DISL:CATA:1,2016-06-05T00:30:00Z,30.3085,-88.1395,2.134,16.26,1111122 
DISL,ioos:station:DISL:CATA:1,2016-06-05T01:00:00Z,30.3085,-88.1395,2.114,16.47,1111122 
DISL,ioos:station:DISL:CATA:1,2016-06-05T01:30:00Z,30.3085,-88.1395,2.111,16.59,1111122 
DISL,ioos:station:DISL:CATA:1,2016-06-05T02:00:00Z,30.3085,-88.1395,2.087,16.7,1111122 
DISL,ioos:station:DISL:CATA:1,2016-06-05T02:30:00Z,30.3085,-88.1395,2.098,16.7,1111122 
DISL,ioos:station:DISL:CATA:1,2016-06-05T03:00:00Z,30.3085,-88.1395,2.088,16.72,1111122 
DISL,ioos:station:DISL:CATA:1,2016-06-05T03:30:00Z,30.3085,-88.1395,2.069,16.65,1111122 
DISL,ioos:station:DISL:CATA:1,2016-06-05T04:00:00Z,30.3085,-88.1395,2.077,16.59,1111122 
DISL,ioos:station:DISL:CATA:1,2016-06-05T04:30:00Z,30.3085,-88.1395,2.105,16.52,1111122 
DISL,ioos:station:DISL:CATA:1,2016-06-05T05:00:00Z,30.3085,-88.1395,2.171,16.47,1111122 
DISL,ioos:station:DISL:CATA:1,2016-06-05T05:30:00Z,30.3085,-88.1395,2.217,16.53,1111122 
DISL,ioos:station:DISL:CATA:1,2016-06-05T06:00:00Z,30.3085,-88.1395,2.212,16.58,1111122 
DISL,ioos:station:DISL:CATA:1,2016-06-05T06:30:00Z,30.3085,-88.1395,2.274,16.63,1111122 
DISL,ioos:station:DISL:CATA:1,2016-06-05T07:00:00Z,30.3085,-88.1395,2.338,16.82,1111122 
DISL,ioos:station:DISL:CATA:1,2016-06-05T07:30:00Z,30.3085,-88.1395,2.287,16.99,1111122 
DISL,ioos:station:DISL:CATA:1,2016-06-05T08:00:00Z,30.3085,-88.1395,2.264,16.95,1111122 
DISL,ioos:station:DISL:CATA:1,2016-06-05T08:30:00Z,30.3085,-88.1395,2.313,16.85,1111122 
DISL,ioos:station:DISL:CATA:1,2016-06-05T09:00:00Z,30.3085,-88.1395,2.3,16.78,1111122 
DISL,ioos:station:DISL:CATA:1,2016-06-05T09:30:00Z,30.3085,-88.1395,2.328,17.01,1111122 
DISL,ioos:station:DISL:CATA:1,2016-06-05T10:00:00Z,30.3085,-88.1395,2.341,17.14,1111122 
DISL,ioos:station:DISL:CATA:1,2016-06-05T10:30:00Z,30.3085,-88.1395,2.374,16.66,1111122 
DISL,ioos:station:DISL:CATA:1,2016-06-05T11:00:00Z,30.3085,-88.1395,2.401,16.58,1111122 
DISL,ioos:station:DISL:CATA:1,2016-06-05T11:30:00Z,30.3085,-88.1395,2.443,16.58,1111122 
DISL,ioos:station:DISL:CATA:1,2016-06-05T12:00:00Z,30.3085,-88.1395,2.477,16.57,1111122 
DISL,ioos:station:DISL:CATA:1,2016-06-05T12:30:00Z,30.3085,-88.1395,2.494,16.52,1111122 
DISL,ioos:station:DISL:CATA:1,2016-06-05T13:00:00Z,30.3085,-88.1395,2.553,16.8,1111122 
DISL,ioos:station:DISL:CATA:1,2016-06-05T13:30:00Z,30.3085,-88.1395,2.575,16.97,1111122 
DISL,ioos:station:DISL:CATA:1,2016-06-05T14:00:00Z,30.3085,-88.1395,2.61,17.06,1111122 
DISL,ioos:station:DISL:CATA:1,2016-06-05T14:30:00Z,30.3085,-88.1395,2.619,16.95,1111122 
DISL,ioos:station:DISL:CATA:1,2016-06-05T15:00:00Z,30.3085,-88.1395,2.63,16.94,1111122 
DISL,ioos:station:DISL:CATA:1,2016-06-05T15:30:00Z,30.3085,-88.1395,2.649,17.07,1111122 
DISL,ioos:station:DISL:CATA:1,2016-06-05T16:00:00Z,30.3085,-88.1395,2.667,17.25,1111122 
DISL,ioos:station:DISL:CATA:1,2016-06-05T16:30:00Z,30.3085,-88.1395,2.646,17.55,1111122 
DISL,ioos:station:DISL:CATA:1,2016-06-05T17:00:00Z,30.3085,-88.1395,2.62,17.78,1111122 
DISL,ioos:station:DISL:CATA:1,2016-06-05T17:30:00Z,30.3085,-88.1395,2.604,19.14,1111122 
DISL,ioos:station:DISL:CATA:1,2016-06-05T18:00:00Z,30.3085,-88.1395,2.555,20.24,1111122 
DISL,ioos:station:DISL:CATA:1,2016-06-05T18:30:00Z,30.3085,-88.1395,2.555,20.28,1111122 
DISL,ioos:station:DISL:CATA:1,2016-06-05T19:00:00Z,30.3085,-88.1395,2.509,19.28,1111122 
DISL,ioos:station:DISL:CATA:1,2016-06-05T19:30:00Z,30.3085,-88.1395,2.478,16.41,1111122 
DISL,ioos:station:DISL:CATA:1,2016-06-05T20:00:00Z,30.3085,-88.1395,2.438,15.9,1111122 
DISL,ioos:station:DISL:CATA:1,2016-06-05T20:30:00Z,30.3085,-88.1395,2.42,16.04,1111122 
DISL,ioos:station:DISL:CATA:1,2016-06-05T21:00:00Z,30.3085,-88.1395,2.374,16.0,1111122 
DISL,ioos:station:DISL:CATA:1,2016-06-05T21:30:00Z,30.3085,-88.1395,2.332,15.96,1111122 
DISL,ioos:station:DISL:CATA:1,2016-06-05T22:00:00Z,30.3085,-88.1395,2.276,15.75,1111122 
DISL,ioos:station:DISL:CATA:1,2016-06-05T22:30:00Z,30.3085,-88.1395,2.233,15.62,1111122 
DISL,ioos:station:DISL:CATA:1,2016-06-05T23:00:00Z,30.3085,-88.1395,2.192,15.65,1111122 
DISL,ioos:station:DISL:CATA:1,2016-06-05T23:30:00Z,30.3085,-88.1395,2.155,15.77,1111122 
DISL,ioos:station:DISL:CATA:1,2016-06-06T00:00:00Z,30.3085,-88.1395,2.124,15.77,1111122 
DISL,ioos:station:DISL:CATA:1,2016-06-06T00:30:00Z,30.3085,-88.1395,2.1,15.53,1111122 
DISL,ioos:station:DISL:CATA:1,2016-06-06T01:00:00Z,30.3085,-88.1395,2.087,15.29,1111122 
DISL,ioos:station:DISL:CATA:1,2016-06-06T01:30:00Z,30.3085,-88.1395,2.069,15.24,1111122 
DISL,ioos:station:DISL:CATA:1,2016-06-06T02:00:00Z,30.3085,-88.1395,2.072,15.28,1111122 
DISL,ioos:station:DISL:CATA:1,2016-06-06T02:30:00Z,30.3085,-88.1395,2.081,15.29,1111122 
DISL,ioos:station:DISL:CATA:1,2016-06-06T03:00:00Z,30.3085,-88.1395,2.09,15.24,1111122 
DISL,ioos:station:DISL:CATA:1,2016-06-06T03:30:00Z,30.3085,-88.1395,2.085,15.18,1111122 
DISL,ioos:station:DISL:CATA:1,2016-06-06T04:00:00Z,30.3085,-88.1395,2.086,15.06,1111122 
DISL,ioos:station:DISL:CATA:1,2016-06-06T04:30:00Z,30.3085,-88.1395,2.096,14.9,1111122 
DISL,ioos:station:DISL:CATA:1,2016-06-06T05:00:00Z,30.3085,-88.1395,2.113,14.81,1111122 
DISL,ioos:station:DISL:CATA:1,2016-06-06T05:30:00Z,30.3085,-88.1395,2.132,14.78,1111122 
DISL,ioos:station:DISL:CATA:1,2016-06-06T06:00:00Z,30.3085,-88.1395,2.152,14.73,1111122 
DISL,ioos:station:DISL:CATA:1,2016-06-06T06:30:00Z,30.3085,-88.1395,2.182,14.73,1111122 
DISL,ioos:station:DISL:CATA:1,2016-06-06T07:00:00Z,30.3085,-88.1395,2.22,14.76,1111122 
DISL,ioos:station:DISL:CATA:1,2016-06-06T07:30:00Z,30.3085,-88.1395,2.243,14.97,1111122 
DISL,ioos:station:DISL:CATA:1,2016-06-06T08:00:00Z,30.3085,-88.1395,2.283,14.9,1111122 
DISL,ioos:station:DISL:CATA:1,2016-06-06T08:30:00Z,30.3085,-88.1395,2.318,14.86,1111122 
DISL,ioos:station:DISL:CATA:1,2016-06-06T09:00:00Z,30.3085,-88.1395,2.331,14.93,1111122 
DISL,ioos:station:DISL:CATA:1,2016-06-06T09:30:00Z,30.3085,-88.1395,2.363,15.05,1111122 
DISL,ioos:station:DISL:CATA:1,2016-06-06T10:00:00Z,30.3085,-88.1395,2.387,15.22,1111122 
DISL,ioos:station:DISL:CATA:1,2016-06-06T10:30:00Z,30.3085,-88.1395,2.411,15.4,1111122 
DISL,ioos:station:DISL:CATA:1,2016-06-06T11:00:00Z,30.3085,-88.1395,2.451,15.47,1111122 
DISL,ioos:station:DISL:CATA:1,2016-06-06T11:30:00Z,30.3085,-88.1395,2.48,15.72,1111122 
DISL,ioos:station:DISL:CATA:1,2016-06-06T12:00:00Z,30.3085,-88.1395,2.512,15.89,1111122 
DISL,ioos:station:DISL:CATA:1,2016-06-06T12:30:00Z,30.3085,-88.1395,2.538,15.99,1111122 
DISL,ioos:station:DISL:CATA:1,2016-06-06T13:00:00Z,30.3085,-88.1395,2.552,15.98,1111122 
DISL,ioos:station:DISL:CATA:1,2016-06-06T13:30:00Z,30.3085,-88.1395,2.581,16.03,1111122 
DISL,ioos:station:DISL:CATA:1,2016-06-06T14:00:00Z,30.3085,-88.1395,2.622,15.97,1111122 